Time,TemperatureF,DewpointF,PressureIn,WindDirection,WindDirectionDegrees,WindSpeedMPH,WindSpeedGustMPH,Humidity,HourlyPrecipIn,Conditions,Clouds,dailyrainin,SoftwareType,DateUTC
2013-01-07 00:09:00,30.0,8.1,30.28,North,360,0.0,0.0,39,0.00,,---,0.00,VWS V14.01,2013-01-07 07:09:00,
2013-01-07 00:19:00,30.0,7.5,30.28,NNE,22,0.0,0.0,38,0.00,,---,0.00,VWS V14.01,2013-01-07 07:19:00,
2013-01-07 00:29:00,31.0,8.4,30.26,NE,45,0.0,8.0,38,0.00,,---,0.00,VWS V14.01,2013-01-07 07:29:00,
2013-01-07 00:39:00,31.0,8.4,30.26,NE,45,0.0,7.0,38,0.00,,---,0.00,VWS V14.01,2013-01-07 07:39:00,
2013-01-07 00:49:00,31.0,8.4,30.26,North,360,0.0,6.0,38,0.00,,---,0.00,VWS V14.01,2013-01-07 07:49:00,
2013-01-07 00:59:00,30.0,7.5,30.25,NE,45,0.0,8.0,38,0.00,,---,0.00,VWS V14.01,2013-01-07 07:59:00,
2013-01-07 01:09:00,30.0,8.6,30.25,NNE,22,2.0,6.0,40,0.00,,---,0.00,VWS V14.01,2013-01-07 08:09:00,
2013-01-07 01:20:00,31.0,9.5,30.26,NNE,22,5.0,6.0,40,0.00,,---,0.00,VWS V14.01,2013-01-07 08:20:00,
2013-01-07 01:29:00,31.0,9.5,30.25,NE,45,4.0,8.0,40,0.00,,---,0.00,VWS V14.01,2013-01-07 08:29:00,
2013-01-07 01:39:00,31.0,9.5,30.24,North,360,0.0,9.0,40,0.00,,---,0.00,VWS V14.01,2013-01-07 08:39:00,
2013-01-07 01:49:00,31.0,10.1,30.25,NNE,22,0.0,3.0,41,0.00,,---,0.00,VWS V14.01,2013-01-07 08:49:00,
2013-01-07 01:59:00,31.0,10.1,30.24,NE,45,1.0,8.0,41,0.00,,---,0.00,VWS V14.01,2013-01-07 08:59:00,
2013-01-07 02:09:00,30.0,9.7,30.24,NNE,22,0.0,6.0,42,0.00,,---,0.00,VWS V14.01,2013-01-07 09:09:00,
2013-01-07 02:19:00,30.0,9.7,30.24,North,360,0.0,0.0,42,0.00,,---,0.00,VWS V14.01,2013-01-07 09:19:00,
2013-01-07 02:29:00,30.0,9.7,30.25,NW,315,0.0,0.0,42,0.00,,---,0.00,VWS V14.01,2013-01-07 09:29:00,
2013-01-07 02:39:00,30.0,9.7,30.25,North,360,0.0,0.0,42,0.00,,---,0.00,VWS V14.01,2013-01-07 09:39:00,
2013-01-07 02:49:00,30.0,9.7,30.25,West,270,0.0,0.0,42,0.00,,---,0.00,VWS V14.01,2013-01-07 09:49:00,
2013-01-07 02:59:00,30.0,9.7,30.26,North,360,0.0,0.0,42,0.00,,---,0.00,VWS V14.01,2013-01-07 09:59:00,
2013-01-07 03:09:00,30.0,10.2,30.25,North,360,0.0,0.0,43,0.00,,---,0.00,VWS V14.01,2013-01-07 10:09:00,
2013-01-07 03:19:00,30.0,10.2,30.25,North,360,0.0,0.0,43,0.00,,---,0.00,VWS V14.01,2013-01-07 10:19:00,
2013-01-07 03:29:00,30.0,10.2,30.25,NNE,22,0.0,0.0,43,0.00,,---,0.00,VWS V14.01,2013-01-07 10:29:00,
2013-01-07 03:39:00,31.0,10.6,30.24,NE,45,0.0,0.0,42,0.00,,---,0.00,VWS V14.01,2013-01-07 10:39:00,
2013-01-07 03:49:00,31.0,10.6,30.24,NNE,22,0.0,0.0,42,0.00,,---,0.00,VWS V14.01,2013-01-07 10:49:00,
2013-01-07 03:59:00,30.0,9.7,30.23,NE,45,0.0,0.0,42,0.00,,---,0.00,VWS V14.01,2013-01-07 10:59:00,
2013-01-07 04:09:00,30.0,10.2,30.23,NE,45,0.0,0.0,43,0.00,,---,0.00,VWS V14.01,2013-01-07 11:09:00,
2013-01-07 04:19:00,30.0,10.2,30.23,NE,45,0.0,0.0,43,0.00,,---,0.00,VWS V14.01,2013-01-07 11:19:00,
2013-01-07 04:29:00,29.0,10.3,30.23,NE,45,0.0,0.0,45,0.00,,---,0.00,VWS V14.01,2013-01-07 11:29:00,
2013-01-07 04:39:00,29.0,10.3,30.23,NE,45,0.0,0.0,45,0.00,,---,0.00,VWS V14.01,2013-01-07 11:39:00,
2013-01-07 04:49:00,29.0,10.3,30.23,NNE,22,0.0,0.0,45,0.00,,---,0.00,VWS V14.01,2013-01-07 11:49:00,
2013-01-07 04:59:00,29.0,10.3,30.23,NNE,22,0.0,0.0,45,0.00,,---,0.00,VWS V14.01,2013-01-07 11:59:00,
2013-01-07 05:09:00,28.0,9.9,30.23,NNE,22,0.0,0.0,46,0.00,,---,0.00,VWS V14.01,2013-01-07 12:09:00,
2013-01-07 05:19:00,28.0,10.4,30.23,North,360,0.0,0.0,47,0.00,,---,0.00,VWS V14.01,2013-01-07 12:19:00,
2013-01-07 05:29:00,28.0,10.4,30.24,North,360,0.0,0.0,47,0.00,,---,0.00,VWS V14.01,2013-01-07 12:29:00,
2013-01-07 05:39:00,28.0,10.9,30.24,North,360,0.0,0.0,48,0.00,,---,0.00,VWS V14.01,2013-01-07 12:39:00,
2013-01-07 06:09:00,29.0,10.3,30.24,NNE,22,0.0,0.0,45,0.00,,---,0.00,VWS V14.01,2013-01-07 13:09:00,
2013-01-07 06:19:00,29.0,10.3,30.24,NNE,22,0.0,0.0,45,0.00,,---,0.00,VWS V14.01,2013-01-07 13:19:00,
2013-01-07 06:29:00,29.0,10.3,30.24,NNE,22,0.0,0.0,45,0.00,,---,0.00,VWS V14.01,2013-01-07 13:29:00,
2013-01-07 06:39:00,29.0,9.8,30.24,NNE,22,0.0,0.0,44,0.00,,---,0.00,VWS V14.01,2013-01-07 13:39:00,
2013-01-07 06:49:00,29.0,9.8,30.23,North,360,0.0,0.0,44,0.00,,---,0.00,VWS V14.01,2013-01-07 13:49:00,
2013-01-07 06:59:00,29.0,10.3,30.24,North,360,0.0,0.0,45,0.00,,---,0.00,VWS V14.01,2013-01-07 13:59:00,
2013-01-07 07:09:00,29.0,10.3,30.23,North,360,0.0,0.0,45,0.00,,---,0.00,VWS V14.01,2013-01-07 14:09:00,
2013-01-07 07:19:00,29.0,10.3,30.23,NW,315,0.0,0.0,45,0.00,,---,0.00,VWS V14.01,2013-01-07 14:19:00,
2013-01-07 07:29:00,29.0,10.3,30.22,NNW,337,0.0,0.0,45,0.00,,---,0.00,VWS V14.01,2013-01-07 14:29:00,
2013-01-07 07:39:00,29.0,9.8,30.24,WNW,292,0.0,0.0,44,0.00,,---,0.00,VWS V14.01,2013-01-07 14:39:00,
2013-01-07 07:49:00,29.0,9.8,30.23,NNE,22,0.0,0.0,44,0.00,,---,0.00,VWS V14.01,2013-01-07 14:49:00,
2013-01-07 07:59:00,30.0,10.2,30.23,North,360,0.0,0.0,43,0.00,,---,0.00,VWS V14.01,2013-01-07 14:59:00,
2013-01-07 08:09:00,30.0,10.2,30.23,NNE,22,0.0,8.0,43,0.00,,---,0.00,VWS V14.01,2013-01-07 15:09:00,
2013-01-07 08:19:00,30.0,10.2,30.24,NNE,22,4.0,7.0,43,0.00,,---,0.00,VWS V14.01,2013-01-07 15:19:00,
2013-01-07 08:29:00,31.0,11.1,30.22,NE,45,4.0,9.0,43,0.00,,---,0.00,VWS V14.01,2013-01-07 15:29:00,
2013-01-07 08:39:00,31.0,10.6,30.22,NE,45,0.0,10.0,42,0.00,,---,0.00,VWS V14.01,2013-01-07 15:39:00,
2013-01-07 08:49:00,32.0,11.5,30.22,NE,45,2.0,10.0,42,0.00,,---,0.00,VWS V14.01,2013-01-07 15:49:00,
2013-01-07 08:59:00,32.0,12.1,30.22,NE,45,8.0,12.0,43,0.00,,---,0.00,VWS V14.01,2013-01-07 15:59:00,
2013-01-07 09:09:00,33.0,12.4,30.21,ENE,67,0.0,11.0,42,0.00,,---,0.00,VWS V14.01,2013-01-07 16:09:00,
2013-01-07 09:19:00,34.0,12.8,30.22,North,360,0.0,10.0,41,0.00,,---,0.00,VWS V14.01,2013-01-07 16:19:00,
2013-01-07 09:29:00,34.0,11.7,30.21,NNE,22,8.0,13.0,39,0.00,,---,0.00,VWS V14.01,2013-01-07 16:29:00,
2013-01-07 09:39:00,36.0,12.3,30.21,NE,45,11.0,13.0,37,0.00,,---,0.00,VWS V14.01,2013-01-07 16:39:00,
2013-01-07 09:49:00,37.0,12.5,30.20,NE,45,7.0,16.0,36,0.00,,---,0.00,VWS V14.01,2013-01-07 16:49:00,
2013-01-07 09:59:00,37.0,11.9,30.20,ENE,67,14.0,15.0,35,0.00,,---,0.00,VWS V14.01,2013-01-07 16:59:00,
2013-01-07 10:09:00,37.0,11.2,30.20,NE,45,11.0,16.0,34,0.00,,---,0.00,VWS V14.01,2013-01-07 17:09:00,
2013-01-07 10:19:00,38.0,12.1,30.20,NE,45,15.0,16.0,34,0.00,,---,0.00,VWS V14.01,2013-01-07 17:19:00,
2013-01-07 10:29:00,38.0,11.5,30.18,NE,45,7.0,18.0,33,0.00,,---,0.00,VWS V14.01,2013-01-07 17:29:00,
2013-01-07 10:39:00,39.0,11.7,30.18,ENE,67,12.0,17.0,32,0.00,,---,0.00,VWS V14.01,2013-01-07 17:39:00,
2013-01-07 10:49:00,38.0,10.8,30.18,ENE,67,11.0,17.0,32,0.00,,---,0.00,VWS V14.01,2013-01-07 17:49:00,
2013-01-07 10:59:00,39.0,10.9,30.17,NE,45,11.0,14.0,31,0.00,,---,0.00,VWS V14.01,2013-01-07 17:59:00,
2013-01-07 11:09:00,39.0,10.9,30.17,NE,45,10.0,18.0,31,0.00,,---,0.00,VWS V14.01,2013-01-07 18:09:00,
2013-01-07 11:19:00,40.0,10.3,30.16,ENE,67,12.0,16.0,29,0.00,,---,0.00,VWS V14.01,2013-01-07 18:19:00,
2013-01-07 11:29:00,41.0,11.2,30.15,ENE,67,10.0,14.0,29,0.00,,---,0.00,VWS V14.01,2013-01-07 18:29:00,
2013-01-07 11:39:00,41.0,10.4,30.14,NE,45,10.0,14.0,28,0.00,,---,0.00,VWS V14.01,2013-01-07 18:39:00,
2013-01-07 11:49:00,42.0,10.5,30.14,ENE,67,8.0,14.0,27,0.00,,---,0.00,VWS V14.01,2013-01-07 18:49:00,
2013-01-07 11:59:00,42.0,10.5,30.13,NE,45,8.0,13.0,27,0.00,,---,0.00,VWS V14.01,2013-01-07 18:59:00,
2013-01-07 12:09:00,42.0,10.5,30.13,NE,45,0.0,12.0,27,0.00,,---,0.00,VWS V14.01,2013-01-07 19:09:00,
2013-01-07 12:19:00,42.0,10.5,30.12,East,90,8.0,10.0,27,0.00,,---,0.00,VWS V14.01,2013-01-07 19:19:00,
2013-01-07 12:29:00,43.0,10.5,30.12,NE,45,4.0,10.0,26,0.00,,---,0.00,VWS V14.01,2013-01-07 19:29:00,
2013-01-07 12:39:00,43.0,11.3,30.11,ENE,67,5.0,8.0,27,0.00,,---,0.00,VWS V14.01,2013-01-07 19:39:00,
2013-01-07 12:49:00,44.0,12.2,30.10,NE,45,0.0,8.0,27,0.00,,---,0.00,VWS V14.01,2013-01-07 19:49:00,
2013-01-07 12:59:00,44.0,12.2,30.09,East,90,5.0,5.0,27,0.00,,---,0.00,VWS V14.01,2013-01-07 19:59:00,
2013-01-07 13:09:00,43.0,11.3,30.09,East,90,0.0,7.0,27,0.00,,---,0.00,VWS V14.01,2013-01-07 20:09:00,
2013-01-07 13:19:00,44.0,13.0,30.09,East,90,0.0,1.0,28,0.00,,---,0.00,VWS V14.01,2013-01-07 20:19:00,
2013-01-07 13:39:00,45.0,13.9,30.08,North,360,0.0,0.0,28,0.00,,---,0.00,VWS V14.01,2013-01-07 20:39:00,
2013-01-07 13:49:00,45.0,14.7,30.08,SE,135,0.0,0.0,29,0.00,,---,0.00,VWS V14.01,2013-01-07 20:49:00,
2013-01-07 13:59:00,47.0,16.4,30.08,SE,135,0.0,0.0,29,0.00,,---,0.00,VWS V14.01,2013-01-07 20:59:00,
2013-01-07 14:09:00,47.0,15.6,30.08,SSE,157,0.0,0.0,28,0.00,,---,0.00,VWS V14.01,2013-01-07 21:09:00,
2013-01-07 14:19:00,47.0,15.6,30.08,SE,135,0.0,0.0,28,0.00,,---,0.00,VWS V14.01,2013-01-07 21:19:00,
2013-01-07 14:29:00,48.0,15.6,30.08,SE,135,0.0,0.0,27,0.00,,---,0.00,VWS V14.01,2013-01-07 21:29:00,
2013-01-07 14:39:00,47.0,15.6,30.07,North,360,0.0,0.0,28,0.00,,---,0.00,VWS V14.01,2013-01-07 21:39:00,
2013-01-07 14:49:00,47.0,15.6,30.07,South,180,0.0,4.0,28,0.00,,---,0.00,VWS V14.01,2013-01-07 21:49:00,
2013-01-07 14:59:00,47.0,15.6,30.06,SW,225,0.0,0.0,28,0.00,,---,0.00,VWS V14.01,2013-01-07 21:59:00,
2013-01-07 15:09:00,47.0,15.6,30.07,SW,225,0.0,0.0,28,0.00,,---,0.00,VWS V14.01,2013-01-07 22:09:00,
2013-01-07 15:19:00,47.0,15.6,30.06,East,90,0.0,4.0,28,0.00,,---,0.00,VWS V14.01,2013-01-07 22:19:00,
2013-01-07 15:29:00,47.0,16.4,30.07,SE,135,0.0,0.0,29,0.00,,---,0.00,VWS V14.01,2013-01-07 22:29:00,
2013-01-07 15:39:00,46.0,15.5,30.06,East,90,0.0,0.0,29,0.00,,---,0.00,VWS V14.01,2013-01-07 22:39:00,
2013-01-07 15:49:00,47.0,16.4,30.06,SE,135,0.0,0.0,29,0.00,,---,0.00,VWS V14.01,2013-01-07 22:49:00,
2013-01-07 15:59:00,47.0,17.2,30.06,SE,135,0.0,0.0,30,0.00,,---,0.00,VWS V14.01,2013-01-07 22:59:00,
2013-01-07 16:09:00,46.0,16.3,30.06,East,90,0.0,0.0,30,0.00,,---,0.00,VWS V14.01,2013-01-07 23:09:00,
2013-01-07 16:19:00,46.0,16.3,30.06,ESE,112,0.0,0.0,30,0.00,,---,0.00,VWS V14.01,2013-01-07 23:19:00,
2013-01-07 16:29:00,46.0,17.1,30.07,ESE,112,0.0,0.0,31,0.00,,---,0.00,VWS V14.01,2013-01-07 23:29:00,
2013-01-07 16:49:00,45.0,16.9,30.08,ESE,112,0.0,0.0,32,0.00,,---,0.00,VWS V14.01,2013-01-07 23:49:00,
2013-01-07 18:19:00,38.0,14.1,30.13,NNE,22,0.0,0.0,37,0.00,,---,0.00,VWS V14.01,2013-01-08 01:19:00,
2013-01-07 18:30:00,35.0,12.6,30.14,West,270,0.0,0.0,39,0.00,,---,0.00,VWS V14.01,2013-01-08 01:30:00,
2013-01-07 18:40:00,34.0,13.3,30.14,West,270,0.0,0.0,42,0.00,,---,0.00,VWS V14.01,2013-01-08 01:40:00,
2013-01-07 18:50:00,33.0,13.5,30.14,WNW,292,0.0,0.0,44,0.00,,---,0.00,VWS V14.01,2013-01-08 01:50:00,
2013-01-07 19:00:00,33.0,13.5,30.15,WNW,292,0.0,0.0,44,0.00,,---,0.00,VWS V14.01,2013-01-08 02:00:00,
2013-01-07 19:10:00,32.0,14.1,30.15,West,270,0.0,0.0,47,0.00,,---,0.00,VWS V14.01,2013-01-08 02:10:00,
2013-01-07 19:20:00,31.0,13.6,30.15,WNW,292,4.0,6.0,48,0.00,,---,0.00,VWS V14.01,2013-01-08 02:20:00,
2013-01-07 19:30:00,32.0,14.6,30.15,WNW,292,0.0,6.0,48,0.00,,---,0.00,VWS V14.01,2013-01-08 02:30:00,
2013-01-07 19:40:00,32.0,14.6,30.15,NW,315,0.0,0.0,48,0.00,,---,0.00,VWS V14.01,2013-01-08 02:40:00,
2013-01-07 19:50:00,32.0,15.5,30.15,North,360,0.0,0.0,50,0.00,,---,0.00,VWS V14.01,2013-01-08 02:50:00,
2013-01-07 20:00:00,32.0,14.6,30.15,North,360,0.0,0.0,48,0.00,,---,0.00,VWS V14.01,2013-01-08 03:00:00,
2013-01-07 20:10:00,33.0,13.5,30.15,NNW,337,0.0,0.0,44,0.00,,---,0.00,VWS V14.01,2013-01-08 03:10:00,
2013-01-07 20:20:00,32.0,13.1,30.15,NNW,337,0.0,0.0,45,0.00,,---,0.00,VWS V14.01,2013-01-08 03:20:00,
2013-01-07 20:30:00,32.0,13.1,30.15,North,360,0.0,0.0,45,0.00,,---,0.00,VWS V14.01,2013-01-08 03:30:00,
2013-01-07 20:40:00,32.0,13.1,30.15,NW,315,0.0,0.0,45,0.00,,---,0.00,VWS V14.01,2013-01-08 03:40:00,
2013-01-07 20:50:00,31.0,13.1,30.15,WNW,292,0.0,0.0,47,0.00,,---,0.00,VWS V14.01,2013-01-08 03:50:00,
2013-01-07 21:00:00,31.0,14.6,30.16,WNW,292,0.0,0.0,50,0.00,,---,0.00,VWS V14.01,2013-01-08 04:00:00,
2013-01-07 21:10:00,31.0,15.0,30.16,WNW,292,0.0,0.0,51,0.00,,---,0.00,VWS V14.01,2013-01-08 04:10:00,
2013-01-07 21:20:00,31.0,15.4,30.16,WNW,292,0.0,0.0,52,0.00,,---,0.00,VWS V14.01,2013-01-08 04:20:00,
2013-01-07 21:30:00,31.0,16.7,30.16,NW,315,0.0,0.0,55,0.00,,---,0.00,VWS V14.01,2013-01-08 04:30:00,
2013-01-07 21:40:00,31.0,16.7,30.16,NNW,337,0.0,0.0,55,0.00,,---,0.00,VWS V14.01,2013-01-08 04:40:00,
2013-01-07 21:50:00,31.0,17.2,30.15,NNW,337,0.0,0.0,56,0.00,,---,0.00,VWS V14.01,2013-01-08 04:50:00,
2013-01-07 22:00:00,31.0,16.7,30.15,NNW,337,0.0,0.0,55,0.00,,---,0.00,VWS V14.01,2013-01-08 05:00:00,
2013-01-07 22:10:00,31.0,17.2,30.15,NNW,337,0.0,0.0,56,0.00,,---,0.00,VWS V14.01,2013-01-08 05:10:00,
2013-01-07 22:20:00,31.0,16.7,30.14,NNW,337,0.0,0.0,55,0.00,,---,0.00,VWS V14.01,2013-01-08 05:20:00,
2013-01-07 22:40:00,30.0,16.2,30.14,NW,315,0.0,0.0,56,0.00,,---,0.00,VWS V14.01,2013-01-08 05:40:00,
2013-01-07 22:50:00,29.0,15.7,30.14,NW,315,0.0,0.0,57,0.00,,---,0.00,VWS V14.01,2013-01-08 05:50:00,
2013-01-07 23:00:00,28.0,15.5,30.14,NNW,337,0.0,4.0,59,0.00,,---,0.00,VWS V14.01,2013-01-08 06:00:00,
2013-01-07 23:10:00,28.0,16.3,30.15,WNW,292,0.0,10.0,61,0.00,,---,0.00,VWS V14.01,2013-01-08 06:10:00,
2013-01-07 23:20:00,29.0,16.9,30.15,NW,315,0.0,11.0,60,0.00,,---,0.00,VWS V14.01,2013-01-08 06:20:00,
2013-01-07 23:30:00,29.0,17.2,30.15,WNW,292,5.0,9.0,61,0.00,,---,0.00,VWS V14.01,2013-01-08 06:30:00,
2013-01-07 23:40:00,29.0,17.6,30.15,West,270,5.0,11.0,62,0.00,,---,0.00,VWS V14.01,2013-01-08 06:40:00,
2013-01-07 23:50:00,29.0,17.6,30.16,WNW,292,5.0,8.0,62,0.00,,---,0.00,VWS V14.01,2013-01-08 06:50:00,